Location: Bílinka
(49.3579°N, 14.3767°E)
Time: 08:50:45
(UTC+00:00)

SKYMED 2 - Visible Passes

Search period start: 04 October 2023 00:00
Search period end: 14 October 2023 00:00
Orbit: 621 x 623 km, 97.9° (Epoch: 03 October)

Date Brightness Start Highest point End Pass type
(mag) Time Alt. Az. Time Alt. Az. Time Alt. Az.
04 Oct 7.1 02:23:41 10° ENE 02:24:34 11° NE 02:25:26 10° NE visible
04 Oct 3.9 03:55:36 10° SSE 03:59:54 70° ENE 04:04:16 10° N visible
04 Oct 3.5 17:14:50 10° NNE 17:19:13 79° ESE 17:23:33 10° S visible
04 Oct 6.7 18:52:22 10° NNW 18:54:48 15° WNW 18:57:12 10° W visible
05 Oct 6.7 02:39:54 10° E 02:42:20 15° ENE 02:44:46 10° NNE visible
05 Oct 3.5 04:13:35 10° S 04:17:55 79° WSW 04:22:18 10° NNW visible
05 Oct 3.9 17:32:52 10° N 17:37:13 70° WNW 17:41:32 10° SSW visible
05 Oct 7.0 19:11:45 10° NW 19:12:34 10° NW 19:13:23 10° WNW visible
06 Oct 6.3 02:56:56 10° ESE 03:00:08 21° ENE 03:03:22 10° NNE visible
06 Oct 3.7 04:31:44 10° S 04:35:58 52° W 04:40:15 10° NNW visible
06 Oct 4.7 17:51:00 10° N 17:55:11 47° WNW 17:59:20 10° SW visible
07 Oct 5.7 03:14:15 10° SE 03:18:00 29° ENE 03:21:45 10° N visible
07 Oct 5.5 18:09:13 10° N 18:13:06 32° WNW 18:16:57 10° SW visible
08 Oct 5.0 03:31:49 10° SE 03:35:54 41° ENE 03:40:00 10° N visible
08 Oct 3.9 16:50:50 10° NNE 16:55:03 45° E 16:59:13 10° S visible
08 Oct 6.1 18:27:32 10° N 18:30:57 23° WNW 18:34:22 10° WSW visible
09 Oct 4.1 03:49:33 10° SSE 03:53:50 61° ENE 03:58:08 10° N visible
09 Oct 3.5 17:08:45 10° NNE 17:13:06 69° ESE 17:17:26 10° S visible
09 Oct 6.6 18:46:02 10° NNW 18:48:46 17° WNW 18:51:30 10° W visible
10 Oct 6.8 02:34:15 10° E 02:36:18 13° ENE 02:38:22 10° NNE visible
10 Oct 3.6 04:07:28 10° SSE 04:11:49 89° W 04:16:12 10° NNW visible
10 Oct 3.7 17:26:45 10° NNE 17:31:07 80° WNW 17:35:27 10° SSW visible
10 Oct 6.9 19:04:57 10° NW 19:06:33 12° NW 19:08:08 10° WNW visible
11 Oct 6.4 02:51:06 10° ESE 02:54:05 18° ENE 02:57:05 10° NNE visible
11 Oct 3.6 04:25:33 10° S 04:29:50 60° W 04:34:10 10° NNW visible
11 Oct 4.4 17:44:49 10° N 17:49:05 53° WNW 17:53:18 10° SSW visible
12 Oct 5.9 03:08:20 10° ESE 03:11:55 26° ENE 03:15:30 10° N visible
12 Oct 4.0 04:43:50 10° SSW 04:47:55 40° W 04:52:01 10° NNW visible
12 Oct 5.2 18:03:00 10° N 18:07:00 36° WNW 18:10:58 10° SW visible
13 Oct 5.2 03:25:49 10° SE 03:29:47 36° ENE 03:33:47 10° N visible
13 Oct 4.0 16:44:45 10° NNE 16:48:52 40° E 16:52:57 10° SSE visible
13 Oct 5.8 18:21:16 10° N 18:24:52 26° WNW 18:28:27 10° WSW visible
